www.pogodaiklimat.ru

Погода и климат >> Архив погоды >> Россия >> Краснодарский край >> Новороссийск


АРХИВ ПОГОДЫ в Новороссийске

Время (UTC), дата Ветер
(напр.,м/с)
 
Видим.   Явления Облачность Т
(С)
Тd
(С)
f
(%)
Тe
(С)
Тes
(С)
Комфортность P
(гПа)
Po
(гПа)
Тmin
(С)
Tmax
(С)
R
(мм)
R24
(мм)
S
(см)
06 13.09 СВ 9-17
{18}
20 км ясно +21.9 +4.7 33 +22 +23 комфорт 1019.3 1018.0
09 13.09 СВ 6-12
{17}
20 км ясно +26.0 +5.1 26 +25 +30 комфорт 1019.3 1018.0
12 13.09 СВ 6-11
{14}
20 км ясно +28.1 +3.7 21 +27 +30 жарко 1018.7 1017.4
15 13.09 СВ 1
{11}
20 км ясно +27.4 +2.0 19 +26 +26 жарко 1018.2 1016.9 +29.1
18 13.09 С 1 10 км ясно +24.8 +2.2 23 +24 +24 комфорт 1019.0 1017.7
21 13.09 В 3 10 км ясно +22.4 +3.4 29 +22 +22 комфорт 1018.4 1017.1
00 14.09 СЗ 1 10 км ясно +21.8 +4.4 32 +22 +22 комфорт 1018.0 1016.7
03 14.09 СВ 8-14
{14}
20 км ясно +22.3 +3.0 28 +22 +22 комфорт 1017.8 1016.5 +20.8
06 14.09 СВ 7-13
{14}
20 км ясно +24.3 +4.0 27 +24 +25 комфорт 1018.4 1017.1
09 14.09 СВ 4
{14}
20 км ясно +27.1 +4.0 23 +26 +34 жарко 1018.1 1016.9
12 14.09 Ю 2 20 км ясно +26.7 +14.3 46 +29 +36 жарко 1017.6 1016.3
15 14.09 Ю 1 20 км ясно +25.2 +15.0 53 +28 +28 жарко 1017.3 1016.0 +28.8
18 14.09 СВ 4 20 км ясно +23.0 +3.3 28 +23 +23 комфорт 1017.6 1016.4
21 14.09 СВ 1 10 км ясно +22.4 +4.1 30 +22 +22 комфорт 1018.1 1016.8
00 15.09 СВ 1 10 км ясно +21.4 +4.5 33 +22 +22 комфорт 1017.8 1016.5
03 15.09 штиль 0 20 км 8/0
[Ac trans]
+20.0 +4.5 36 +20 +20 тепло 1018.4 1017.1 +18.7
06 15.09 З 1 20 км 6/0
[Ci fib]
+22.4 +6.1 35 +23 +28 комфорт 1019.4 1018.1
09 15.09 СВ 2 20 км 3/3 1000 м
[Cu hum]
+28.2 +6.9 26 +27 +36 жарко 1019.1 1017.9
12 15.09 С 3
{10}
20 км 3/3 1000 м
[Cu hum]
+27.3 +7.7 29 +27 +31 жарко 1019.1 1017.8
15 15.09 СВ 4 20 км ясно +23.7 +8.4 38 +24 +25 комфорт 1019.6 1018.4 +28.2
18 15.09 СВ 6-11
{11}
10 км ясно +19.9 +6.7 42 +20 +20 тепло 1020.3 1019.0
21 15.09 СВ 7-12
{14}
10 км ясно +20.1 -0.3 25 +20 +20 тепло 1019.5 1018.2
00 16.09 СВ 7-12
{14}
10 км ясно +20.7 -2.6 21 +20 +20 тепло 1018.5 1017.2
03 16.09 СВ 6-12
{13}
20 км ясно +18.4 -0.4 28 +18 +18 тепло 1017.7 1016.4 +18.4
06 16.09 СВ 3
{12}
20 км ясно +23.1 +2.6 26 +23 +26 комфорт 1016.6 1015.3 +17.8
09 16.09 ЮЗ 4 20 км ясно +26.2 +7.9 31 +26 +34 жарко 1015.6 1014.3
12 16.09 ЮЗ 2 20 км ясно +27.4 +7.5 28 +27 +34 жарко 1014.4 1013.2
15 16.09 ЮЗ 3 20 км ясно +25.4 +8.8 35 +26 +26 жарко 1013.6 1012.3 +27.6
18 16.09 С 2 10 км ясно +20.9 +5.1 36 +22 +22 комфорт 1014.2 1012.9
21 16.09 СВ 1 10 км ясно +16.9 +3.5 41 +18 +18 тепло 1014.2 1012.9
00 17.09 СВ 1 10 км ясно +16.4 +5.4 48 +17 +17 тепло 1013.7 1012.4
03 17.09 СВ 2 10 км ясно +15.8 +8.7 63 +16 +16 по сезону 1013.3 1012.0 +15.5
06 17.09 штиль 0 20 км 1/1 600 м
[Cu hum]
+20.6 +8.9 47 +22 +27 комфорт 1013.0 1011.8
09 17.09 Ю 2 20 км 1/1 1000 м
[Cu hum]
+23.5 +11.5 47 +25 +35 комфорт 1013.0 1011.8
12 17.09 ЮЗ 3 20 км 5/5 1000 м
[Cu Sc]
+22.8 +13.0 54 +26 +29 жарко 1013.0 1011.7
15 17.09 Ю 3 20 км 9/8 1000 м
[Sc diur, vesp Cc]
+21.7 +12.8 57 +24 +24 комфорт 1012.7 1011.4 +23.9
18 17.09 ЮЗ 2 10 км 10/8 600 м
[Cu Sc Cc]
+21.7 +14.3 63 +25 +25 комфорт 1013.5 1012.2
21 17.09 ЮЗ 4 10 км 10/8 600 м
[Cu Sc Cc]
+21.8 +15.2 66 +25 +25 комфорт 1013.6 1012.3
00 18.09 Ю 5
{11}
10 км 10/10 600 м
[Cu Sc]
+22.1 +16.4 70 +26 +26 душно 1012.8 1011.5
03 18.09 ЮЗ 5
{11}
10 км 10/10 600 м
[Cb calv]
+22.1 +16.8 72 +26 +26 душно 1013.0 1011.8 +21.4
06 18.09 Ю 5-11
{11}
20 км 10/10
[Cb cap]
+22.5 +16.9 71 +27 +27 душно 1013.8 1012.5
09 18.09 Ю 6-12
{14}
20 км 9/9 600 м
[Cb calv]
+23.4 +17.0 67 +29 +29 душно 1014.3 1013.0
12 18.09 Ю 6-11
{15}
20 км 9/9 600 м
[Cb cap]
+23.3 +17.3 69 +29 +29 душно 1013.3 1012.0
15 18.09 Ю 5-12
{12}
20 км 9/9 300 м
[Cb cap Cc]
+22.8 +17.9 74 +28 +28 душно 1012.9 1011.6 +23.8
18 18.09 СВ 1
{11}
10 км слаб. ливневой дождь 10/10 600 м
[Cb cap]
+19.2 +13.2 68 +22 +22 комфорт 1014.8 1013.5
21 18.09 С 2 10 км {ливн. осадки} 8/8 600 м
[Sc]
+18.6 +8.4 51 +20 +20 тепло 1016.4 1015.1
00 19.09 СВ 2 10 км {ливн. осадки} 10/8 600 м
[Sc Ac As]
+17.1 +5.4 46 +17 +17 тепло 1017.5 1016.2
03 19.09 З 1
{10}
10 км 10/3 600 м
[Sc diur, vesp Ac As Cc]
+16.6 +3.9 43 +18 +18 тепло 1018.6 1017.3 +16.6 0.9
06 19.09 СВ 3
{11}
20 км 8/0
[Ac trans Cc]
+17.4 +4.4 42 +17 +20 по сезону 1019.8 1018.5 +16.4
09 19.09 СВ 2 20 км 8/0
[Ac trans Cc]
+20.5 +3.9 33 +22 +29 комфорт 1020.3 1019.0
12 19.09 СВ 3 20 км 9/5 600 м
[Sc Ac trans]
+21.2 +5.2 35 +22 +23 комфорт 1020.0 1018.7
15 19.09 СВ 2 20 км 10/10 600 м
[Sc]
+17.0 +6.2 49 +17 +17 по сезону 1020.1 1018.7 +22.0
18 19.09 СВ 3 10 км 10/10 600 м
[Sc]
+15.7 +6.6 55 +15 +15 по сезону 1019.9 1018.6
21 19.09 СВ 4
{11}
10 км 10/10 600 м
[Sc]
+15.4 +5.7 52 +15 +15 по сезону 1019.1 1017.8
00 20.09 СВ 7-12
{13}
10 км 10/10 600 м
[Sc]
+15.0 +5.0 51 +13 +13 по сезону 1018.0 1016.7
03 20.09 СВ 8-15
{16}
10 км 10/10 600 м
[Sc]
+14.6 +4.6 51 +13 +13 прохладно 1016.7 1015.4 +14.6

 

Местоположение метеостанции Новороссийск (Краснодарский край, Россия): широта 44.72 долгота 37.85 высота над уровнем моря 3 м.

В архиве по умолчанию представлена погода в Новороссийске за последнюю неделю. Архивные данные за месяц целиком и за предыдущие месяцы, начиная с января 2011 года, Вы можете получить, выбрав интересующий диапазон дат из раскрывающегося списка и нажав кнопку "Ввод!".


*Определитесь, кто Вы:
робот инопланетянин человек

Внимание! Время в таблицах - всемирное. Для получения местного времени необходимо прибавить поправку, которая равна 3 ч.

Смотрите также архив погоды в соседних городах и на ближайших метеорологических станциях:

Погода в Геленджике (Краснодарский край, Россия) (25 км)
Погода в Крымске (Краснодарский край, Россия) (25 км)
Погода в Анапе (Краснодарский край, Россия) (48 км)
Погода в Славянске-на-Кубани (Краснодарский край, Россия) (66 км)
Погода в Темрюке (Краснодарский край, Россия) (76 км)
Погода в Джубге (Краснодарский край, Россия) (81 км)
Погода в Горячем Ключе (Краснодарский край, Россия) (99 км)
Погода в Краснодаре (Краснодарский край, Россия) (100 км)
Погода в Тамани (Краснодарский край, Россия) (105 км)
Погода в Туапсе (Краснодарский край, Россия) (119 км)

Пояснения к столбцам:

Ветер - указаны скорость ветра в м/с - средняя за 10 мин, порывы в срок и между сроками (в фигурных скобках) и направление, откуда дует ветер: С - северный, СВ - северо-восточный, В - восточный, ЮВ - юго-восточный, Ю - южный, ЮЗ - юго-западный, З - западный, СЗ - северо-западный.
Видимость - горизонтальная дальность видимости в метрах или километрах. При видимости от 1 до 10 км при отсутствии осадков обычно наблюдается дымка, при ухудшении видимости до 1 км и менее - туман. В сухую погоду видимость может ухудшаться дымом, пылью или мглою.
Явления - указаны атмосферные явления, наблюдавшиеся в срок или в последний час перед сроком; фигурными скобками обозначены явления, наблюдавшиеся между сроками (за 1-3 часа до срока); квадратными скобками обозначены град или гололедные отложения с указанием их диаметра в мм.
Облачность - указаны через наклонную черту общая и нижняя облачность в баллах и высота нижней границы облаков в метрах; квадратными скобками обозначены формы облаков: Ci - перистые, Cs - перисто-слоистые, Cc - перисто-кучевые, Ac - высококучевые, As - высокослоистые, Sc - слоисто-кучевые, Ns - слоисто-дождевые, Cu - кучевые, Cb - кучево-дождевые. Подробнее классификацию облаков см. в Атласе облаков (PDF).
T - Температура воздуха - температура, измеренная на высоте 2 м над землей.
Td - Температура точки росы - температура, при понижении до которой содержащийся в воздухе водяной пар достигнет насыщения.
f - Относительная влажность воздуха - влажноcть воздуха, измеренная на высоте 2 м над землей.
Te - Эффективная температура - температура, которую ощущает одетый по сезону человек в тени. Характеристика душности погоды. При расчете учитывается влияние влажности воздуха и скорости ветра на теплоощущения человека.
Tes - Эффективная температура на солнце - температура, которую ощущает человек, с поправкой на солнечный нагрев. Характеристика знойности погоды. Зависит от высоты солнца над горизонтом, облачности и скорости ветра. Ночью, в пасмурную погоду, а также при ветре 12 м/с и более поправка равна нулю.
P - Атмосферное давление - приведенное к уровню моря атмосферное давление.
Po - Атмосферное давление - измеренное на уровне метеостанции атмосферное давление.
Tmin - Минимальная температура - минимум температуры воздуха на высоте 2 м над землей.
Tmax - Максимальная температура - максимум температуры воздуха на высоте 2 м над землей.
R - Количество осадков - Количество выпавших осадков за период времени, мм. При наведении курсора мыши на число - период времени, за который выпало указанное количество осадков.
R24 - Количество осадков - Количество выпавших осадков за 24 часа, мм.
S - Снежный покров - Высота снежного покрова, см. При наведении курсора мыши на число - состояние снежного покрова и степень покрытия местности в баллах.